Regional Weather Roundup
Issued by NWS Pendleton, OR

Home | Current Version | Previous Version | Text Only | Print | Product List | Glossary On
Versions: 1 2 3 4 5 6 7 8 9 10 11 12 13 14 15 16 17 18 19 20 21 22 23 24 25 26 27 28 29 30 31 32 33 34 35 36 37 38 39 40 41 42 43 44 45 46 47 48 49 50
224
ASUS46 KPDT 210325
RWRPDT
PENDLETON REGIONAL WEATHER ROUNDUP
NATIONAL WEATHER SERVICE PENDLETON OREGON
800 PM PDT SUN MAY 20 2018

NOTE: FAIR INDICATES FEW OR NO CLOUDS BELOW 12,000 FEET WITH NO
SIGNIFICANT WEATHER AND/OR OBSTRUCTIONS TO VISIBILITY.

# INDICATES UNOFFICIAL STATION AND DATA

WAZ520-210410-
EAST SLOPES OF WASHINGTON CASCADES

CITY            SKY/WX      TMP DP  RH  WIND    PRES   REMARKS
#BULLFROG       N/A         57  45  64  W12     N/A
#CLE ELUM HS    N/A         56  46  69  W3      29.91R
#EASTON DOT     N/A         52  45  77  N2      N/A
#ELK HTS DOT    N/A         57  57  100 SW7     N/A
#GLENWOOD       N/A         63  46  54  CALM    29.85R
#NELSON 3SW     N/A         51  44  77  CALM    30.11R
#NILE           N/A         58  45  62  SW2     29.25R
#TEANAWAY 4NE   N/A         56  48  74  NW5     N/A
#TROUT LAKE 1NE N/A         60  46  60  W1      29.89R
#TROUT LAKE 1E  N/A         62  46  56  CALM    29.96R
$$

WAZ521-210410-
SIMCOE HIGHLANDS

CITY            SKY/WX      TMP DP  RH  WIND    PRES   REMARKS
#BICKLETON HS   N/A         59  51  75  NW5     29.57F
#SATUS PASS DOT N/A         60  47  62  CALM    N/A
#CENTERVILLE 1SWN/A         61  45  56  W15     29.83S
#GOLDENDALE 1NE N/A         67  13  12  SW2     N/A
#GOLDENDALE 4W  N/A         64  23  21  W14     29.95R
#GOODNOE HILLS  N/A         66  47  50  NW15    29.80R
#LYLE 6NE       N/A         61  46  58  SW13    29.91R
#PITT 4SE       N/A         58  45  62  W8      29.92R
$$

WAZ026-210410-
KITTITAS VALLEY

CITY            SKY/WX      TMP DP  RH  WIND    PRES   REMARKS
ELLENSBURG AP   CLEAR       62  46  56  NW22G32 29.90R
#ELLENSBURG CWU N/A         61  46  58  N16     29.79R
#ELLENSBURG 3NE N/A         59  48  67  N9      27.98R
#ELLENSBURG 1E  N/A         61  46  58  W6      29.91S
#KITTITAS 3S    N/A         61  48  62  W6      29.83R
#MANASTASH RDG  N/A         58  58  100 N8      N/A
#ROCKY CYN DOT  N/A         60  42  51  NW8     N/A
#RYEGRASS DOT   N/A         61  39  44  CALM    N/A
#THORP 6N       N/A         77  50  39  CALM    29.66R
$$

WAZ027-210410-
YAKIMA VALLEY

CITY            SKY/WX      TMP DP  RH  WIND    PRES   REMARKS
YAKIMA AIRPORT  PTCLDY      70  47  44  NW13    29.87S
YAKIMA-VAGABOND MOCLDY      70  48  46  W6      29.86S
#DONALD 2NE     N/A         70  26  19  NW3     28.72R
#GRANDVIEW      N/A         70  49  47  CALM    29.84S
#MABTON         N/A         72  54  53  CALM    29.84S
#MOXEE 2E       N/A         37  N/A N/A SW12    29.79S WCI 29
#NACHES 2SW     N/A         63  47  56  W9      29.91S
#OUTLOOK DOT    N/A         70  50  49  CALM    29.82S
#PARKER DOT     N/A         71  50  47  E6      29.86S
#TERRACE HTS    N/A         71  52  51  N3      29.79S
#TOPPENISH      N/A         73  52  48  CALM    29.74F
#I82 S UMTANUM RN/A         68  48  49  W7      N/A
#UNION GAP DOT  N/A         71  47  42  W2      29.89S
#W YAKIMA       N/A         66  45  47  W6      29.84R
#WHITE SWAN 5E  N/A         72  53  51  CALM    29.83S
#WILEY CITY 3W  N/A         65  44  46  CALM    29.85S
#ZILLAH DOT     N/A         73  51  46  W1      N/A
$$

WAZ028-210410-
LOWER COLUMBIA BASIN...WASHINGTON

CITY            SKY/WX      TMP DP  RH  WIND    PRES   REMARKS
PASCO           MOCLDY      71  55  57  NW8     29.83S
PROSSER AWOS    N/A         70  54  57  W3      29.88S
RICHLAND AWOS   PTCLDY      70  53  55  NW3     29.83S
#BASIN CITY 5SW N/A         69  53  57  CALM    29.80S
#BENTON CITY    N/A         72  53  51  CALM    29.72S
#CONNELL 5N     N/A         70  57  63  W1      29.82S
#CONNELL 5NW    N/A         69  59  70  SW2     29.77R
#ELTOPIA 6NW    N/A         72  54  53  CALM    28.82S
#KAHLOTUS       N/A         69  55  61  W2      29.82S
#KENNEWICK 3S   N/A         74  53  48  CALM    29.81S
#PROSSER DOT    N/A         72  48  43  CALM    29.85F
#SAGEMOOR 2W    N/A         72  55  55  NW2     29.67S
#TOUCHET 2S     N/A         71  59  66  SW2     29.80S
#WEST PASCO     N/A         75  54  48  CALM    29.80R
$$

WAZ029-210410-
FOOTHILLS OF THE BLUES...WASHINGTON

CITY            SKY/WX      TMP DP  RH  WIND    PRES   REMARKS
WALLA WALLA AP  CLOUDY      71  55  57  S6      29.86S
#CLYDE 6NW      N/A         69  55  61  S5      29.81R
#DELANEY DOT    N/A         71  54  55  SE6     29.86
#LOWDEN 2SE     N/A         70  62  76  CALM    29.80S
#PLEASANT VIEW 1N/A         65  54  68  W1      29.85R
#PRESCOTT       N/A         71  59  66  CALM    29.81R
#WHITMAN COLLEGEN/A         70  55  59  SE2     29.88R
#WAITSBURG 6SSE N/A         64  54  70  E1      29.67R
#WAITSBURG 8N   N/A          0  N/A N/A S3      29.65S
#WALLA WALLA 5E N/A         67  57  70  SE5     N/A
#WHITMAN MISSIONN/A         70  62  76  CALM    29.83S
$$

WAZ030-210410-
BLUE MOUNTAINS...WASHINGTON

CITY            SKY/WX      TMP DP  RH  WIND    PRES   REMARKS
#DIXIE 5SE      N/A         60  52  75  N3      29.84S
$$

ORZ009-041-WAZ024-210410-
COLUMBIA RIVER GORGE

CITY            SKY/WX      TMP DP  RH  WIND    PRES   REMARKS
HOOD RIVER AP   CLEAR       64  43  46  CALM    29.94R
THE DALLES AP   MOCLEAR     70  43  38  NW15G25 29.89R
#ARLINGTON AIRPON/A         68  47  47  W13     29.84S
#CELILO DOT     N/A         72  44  37  W9      N/A
#LYLE           N/A         67  47  49  NW10    29.91R
#MARYHILL       N/A         66  43  43  N24     N/A
#MURDOCK        N/A         68  47  47  NW15G33 29.84S
#RUFUS DOT      N/A         71  46  41  W15     N/A
#SMITHVILLE     N/A         67  46  47  NW12    29.86R

$$

ORZ510-210410-
NORTH CENTRAL OREGON

CITY            SKY/WX      TMP DP  RH  WIND    PRES   REMARKS
#ANTELOPE       N/A         63  43  48  N5      29.71R
#CHENOWITH 1W   N/A         61  44  53  W28     N/A
#COW CYN RST AREN/A         62  40  44  NW8     N/A
#DUFUR          N/A         63  43  48  W3      29.86R
#DUFUR 9E       N/A         61  43  51  W9      29.94R
#GRASS VALLEY 1SN/A         62  41  46  NW14    29.95S
#KENT DOT       N/A         62  30  30  NW12    N/A
#SHANIKO 5WSW   N/A         60  39  46  N14     N/A
#SHANIKO 4NW    N/A         57  39  51  N10     29.95S
#TYGH VALLEY 2NEN/A         67  43  42  N13     29.86R
#WAPANITIA AIRPON/A         63  44  50  W5      29.89R
#WASCO DOT      N/A         67  43  42  W13     N/A
#WASCO 5NE      N/A         63  46  54  SW5     29.85S
$$

ORZ511-210410-
CENTRAL OREGON

CITY            SKY/WX      TMP DP  RH  WIND    PRES   REMARKS
BEND AIRPORT    PTCLDY      63  32  31  N9      29.95R
MADRAS AIRPORT  PTCLDY      61  36  39  NW17G25 29.96R
PRINEVILLE AP   MOCLDY      63  34  34  N16     29.94R
REDMOND AIRPORT PTCLDY      65  34  31  N14     29.93R
#ASHWOOD SCHOOL N/A         63  48  58  CALM    29.90R
#BEND 1SW       N/A         61  38  42  E1      N/A
#BEND-AWBREY    N/A         63  40  43  N3      29.84R
#BEND-KIM LN    N/A         62  42  48  NW6     29.80R
#CULVER         N/A         61  39  44  NW3     29.68R
#CULVER 8W      N/A         64  37  37  CALM    29.95R
#LAKE BILLY CHINN/A         63  N/A N/A N10     30.01R
#PRINEVILLE     N/A         62  49  62  E5      29.91S
#PRINEVILLE 3N  N/A         61  41  48  W12     29.83R
#WARM SPRINGS   N/A         65  41  41  CALM    29.75R

$$


ORZ509-210410-
EAST SLOPES OF OREGON CASCADES

CITY            SKY/WX      TMP DP  RH  WIND    PRES   REMARKS
SISTERS AWOS    N/A         63  41  44  W16     29.93R
#CAMP SHERMAN   N/A         60  40  47  CALM    29.93R
#LA PINE 4NW    N/A         58  42  55  CALM    29.87R
#LAVA BUTTE DOT N/A         59  30  33  CALM    N/A
#SISTERS ODOT   N/A         62  38  41  W5      N/A
#SISTERS 3N     N/A         59  37  44  CALM    29.97R
#SUNRIVER       N/A         58  41  53  CALM    29.83R
#TUMALO 3W      N/A         61  39  44  NW9     29.73R
#WANOGA BUTTE D N/A         50  N/A N/A NE6     N/A

$$

ORZ044-210410-
LOWER COLUMBIA BASIN...OREGON

CITY            SKY/WX      TMP DP  RH  WIND    PRES   REMARKS
HERMISTON       CLOUDY      75  51  43  W6      29.84R
#BOARDMAN SCHOOLN/A         73  49  43  SW6     29.82S
#BOARDMAN 8SW   N/A         70  49  47  W6      29.84S
#ECHO 8SW       N/A         70  51  51  W5      29.86R
#I-84 EX 198 DOTN/A         71  50  47  E2      N/A
#IONE SCHOOL    N/A         69  40  35  SW7     29.85S
#UMATILLA       N/A         75  52  45  CALM    29.74S
$$

ORZ507-210410-
NORTHERN FOOTHILLS OF THE BLUES

CITY            SKY/WX      TMP DP  RH  WIND    PRES   REMARKS
PENDLETON AIRPT CLOUDY      64  54  70  SE7     29.88R
#ADAMS 3WNW     N/A         58  54  87  CALM    29.83S
#ATHENA         N/A         59  53  80  CALM    29.87R
#CAYUSE         N/A         57  56  96  S3      29.84S
#HELIX SCHOOL   N/A         62  57  84  N3      29.84R
#HELIX 3N       N/A         62  58  87  SW5     29.91R
#HOLDMAN 5SE    N/A         64  57  78  CALM    29.87R
#HOLDMAN 6E     N/A         65  56  73  CALM    29.64R
#M-F GROVE ELEM N/A         64  54  70  SW7     29.84S
#M-FREEWATER 5SEN/A         65  57  75  CALM    29.87R
#PENDLETON DNTN N/A         66  50  56  E2      N/A
#PDT AQUATIC CTRN/A         64  53  67  CALM    29.87S
#PDT SUNRIDGE   N/A         63  58  84  E5      29.89R
#PENDLETON 6SE  N/A         60  57  90  E5      29.80F
#PENDLETON 7NW  N/A         66  56  70  CALM    32.35S
#PILOT ROCK     N/A         60  54  81  CALM    29.91R
#TUTUILLA       N/A         58  54  87  CALM    29.92F
#UMAPINE 2E     N/A         66  59  78  CALM    29.82R

$$

ORZ508-210410-
SOUTHERN FOOTHILLS OF THE BLUES

CITY            SKY/WX      TMP DP  RH  WIND    PRES   REMARKS
#AJAX           N/A         62  34  35  CALM    30.08R
#CONDON 5W      N/A         58  36  44  NW10    29.92S
#FOSSIL SCHOOL  N/A         62  46  56  CALM    29.88S
#HEPPNER EOC    N/A         64  47  54  W3      29.79R
#HEPPNER 4NE    N/A         60  47  62  W1      29.85S
#LEXINGTON 2SE  N/A         69  48  47  W2      29.87R
#MIKKALO        N/A         66  37  34  W12     30.01S
#OLEX 4N        N/A         67  44  43  W10     29.86S
#RUGGS 5NE      N/A         61  43  51  W6      30.11S
#RUGGS 2SW      N/A         62  47  58  W3      29.87S

$$

ORZ502-503-210410-
BLUE MOUNTAINS

CITY            SKY/WX      TMP DP  RH  WIND    PRES   REMARKS
MEACHAM         CLOUDY      53  51  93  CALM    29.95R
#BATTLE MTN DOT N/A         52  49  89  CALM    N/A
#GRANITE        N/A         50  48  93  N1      29.62S
#HARDMAN 10S    N/A         54  48  80  CALM    29.99R
#LADD CYN SMT   N/A         59  49  69  W7      N/A
#LADD CREEK ODOTN/A         61  35  38  CALM    N/A
#N POWDER DOT   N/A         60  49  67  N8      N/A
#PIKES PEAK     N/A         58  52  80  S1      27.99S
#SUMMERVILLE 5NWN/A         57  53  86  NW3     26.58R
#TOLLGATE       N/A         49  48  96  CALM    30.02R
#TROY SCHOOL    N/A         63  59  87  CALM    29.68R
#UKIAH          N/A         56  53  90  CALM    29.76S
$$

ORZ505-210410-
JOHN DAY BASIN

CITY            SKY/WX      TMP DP  RH  WIND    PRES   REMARKS
JOHN DAY        CLOUDY      56  53  90  W8      29.95R
#ANTELOPE 9ESE  N/A         66  51  58  CALM    N/A
#MITCHELL 8NW   N/A         56  48  74  CALM    29.90S
#MONUMENT HS    N/A         61  56  84  CALM    29.88S
#MT. VERNON 5SE N/A         54  51  90  CALM    29.89S
#SPRAY SCHOOL   N/A         64  N/A N/A CALM    N/A
$$

ORZ506-210410-
OCHOCO AND JOHN DAY HIGHLANDS

CITY            SKY/WX      TMP DP  RH  WIND    PRES   REMARKS
#HORSE RIDGE DO N/A         60  34  37  N8      N/A
#IZEE 6NW       N/A         55  50  83  NE5     N/A
#KEYES SMT DOT  N/A         52  48  86  W2      N/A
#PAULINA ODOT   N/A         58  47  67  N3      N/A
#PINE MTN OBS   N/A         48  37  65  CALM    N/A
#PRAIRIE CITY   N/A         56  55  96  CALM    30.07F
#SENECA         N/A         53  N/A N/A N1      N/A
#SENECA 9NW     N/A         51  48  89  CALM    29.81R
$$

ORZ049-210410-
GRANDE RONDE VALLEY

CITY            SKY/WX      TMP DP  RH  WIND    PRES   REMARKS
LA GRANDE       MOCLDY      61  53  75  NW9     29.91R
#COVE SCHOOL    N/A         59  56  90  CALM    29.92S
#COVE 6NW       N/A         59  53  80  NW1     29.85R
#ELGIN 3N       N/A         60  51  72  CALM    29.88R
#ELGIN 1E       N/A         61  53  75  CALM    N/A
#IMBLER SCHOOL  N/A         58  51  77  CALM    29.87S
#ISLAND CITY 4N N/A         63  49  60  CALM    30.01R
#LADD CYN DOT   N/A         62  53  72  W6      N/A
#UNION 1S       N/A         61  55  81  N1      29.84R
$$

ORZ050-210410-
WALLOWA COUNTY

CITY            SKY/WX      TMP DP  RH  WIND    PRES   REMARKS
#ENTERPRISE HS  N/A         56  51  83  CALM    29.73R
#IMNAHA SCHOOL  N/A         65  56  73  CALM    29.87R
#IMNAHA 10S     N/A         61  54  78  CALM    29.88R
#JOSEPH         N/A         55  50  83  CALM    30.15R
#JOSEPH 3N      N/A         54  47  77  CALM    29.98R
#JOSEPH 3W      N/A         52  51  96  CALM    29.80S
#LOSTINE        N/A         57  52  83  CALM    29.65R
#LOSTINE 3SE    N/A         57  51  80  CALM    30.00R
#MT HOWARD 8000 N/A         40  39  96  NW1     30.06R
#PROMISE 1S     N/A         56  54  93  CALM    29.94S
#WALLOWA LAKE   N/A         54  50  86  CALM    29.98R
#WALLOWA SCHOOL N/A         58  53  83  CALM    29.88S



$$



USA.gov is the U.S. government's official web portal to all federal, state and local government web resources and services.